,,Stat5,,Stat1,,Stat2,,Stat3,,Stat4,,Wind1,,Wind1,
time,status,PA1M_AVG,status,PR1M_SUM,status,RH1M_AVG,status,SR1M_AVG,status,TA1M_AVG,status,W1dAve1m,status,W1sAve1m,
2001-02-02, 00:00:00,VALID,916.476,VALID,0,VALID,90.4747,VALID,0,VALID,18.5022,VALID,172,VALID,1.10781,
2001-02-02, 00:01:00,VALID,916.461,VALID,0,VALID,91.2071,VALID,0.0169808,VALID,18.4729,VALID,159,VALID,0.8125,
2001-02-02, 00:02:01,VALID,916.458,VALID,0,VALID,90.8511,VALID,0,VALID,18.4277,VALID,172,VALID,0.900195,
2001-02-02, 00:03:00,VALID,916.459,VALID,0,VALID,89.7956,VALID,0.0169808,VALID,18.3989,VALID,187,VALID,1.00481,
2001-02-02, 00:04:01,VALID,916.436,VALID,0,VALID,89.6799,VALID,0,VALID,18.4349,VALID,192,VALID,0.988898,
2001-02-02, 00:05:01,VALID,916.424,VALID,0,VALID,89.6875,VALID,0,VALID,18.4665,VALID,188,VALID,1.05489,
2001-02-02, 00:06:01,VALID,916.409,VALID,0,VALID,89.952,VALID,0,VALID,18.4826,VALID,199,VALID,1.01603,
2001-02-02, 00:07:00,VALID,916.395,VALID,0,VALID,90.0627,VALID,0.0169808,VALID,18.4796,VALID,212,VALID,1.16992,
2001-02-02, 00:08:01,VALID,916.378,VALID,0,VALID,90.3081,VALID,0,VALID,18.4667,VALID,213,VALID,0.78125,
2001-02-02, 00:09:00,VALID,916.376,VALID,0,VALID,90.8968,VALID,0,VALID,18.4505,VALID,213,VALID,0.594551,
2001-02-02, 00:10:01,VALID,916.359,VALID,0,VALID,90.804,VALID,0,VALID,18.4152,VALID,196,VALID,0.60597,
2001-02-02, 00:11:00,VALID,916.356,VALID,0,VALID,90.7862,VALID,0,VALID,18.3696,VALID,212,VALID,0.775127,
2001-02-02, 00:12:00,VALID,916.341,VALID,0,VALID,90.9375,VALID,0,VALID,18.3345,VALID,204,VALID,0.642628,
2001-02-02, 00:13:00,VALID,916.341,VALID,0,VALID,91.0431,VALID,0,VALID,18.3184,VALID,200,VALID,0.611225,
2001-02-02, 00:14:01,VALID,916.337,VALID,0,VALID,91.0901,VALID,0,VALID,18.2927,VALID,207,VALID,0.753472,
2001-02-02, 00:15:00,VALID,916.336,VALID,0,VALID,91.3317,VALID,-0.0339617,VALID,18.2667,VALID,211,VALID,0.657652,
2001-02-02, 00:16:00,VALID,916.33,VALID,0,VALID,91.6916,VALID,-0.0679233,VALID,18.2411,VALID,217,VALID,0.789268,
2001-02-02, 00:17:01,VALID,916.317,VALID,0,VALID,92.1519,VALID,-0.0169808,VALID,18.2249,VALID,228,VALID,0.952914,
2001-02-02, 00:18:00,VALID,916.307,VALID,0,VALID,92.4126,VALID,-0.0339617,VALID,18.215,VALID,221,VALID,1.03883,
2001-02-02, 00:19:01,VALID,916.304,VALID,0,VALID,92.597,VALID,-0.0169808,VALID,18.2058,VALID,222,VALID,1.03701,
2001-02-02, 00:20:00,VALID,916.295,VALID,0,VALID,92.8055,VALID,-0.0169808,VALID,18.2021,VALID,221,VALID,1.10684,
2001-02-02, 00:21:01,VALID,916.278,VALID,0,VALID,93.0077,VALID,-0.0169808,VALID,18.1894,VALID,220,VALID,1.26563,
2001-02-02, 00:22:01,VALID,916.262,VALID,0,VALID,93.0141,VALID,-0.0169808,VALID,18.1732,VALID,207,VALID,0.852232,
2001-02-02, 00:23:01,VALID,916.251,VALID,0,VALID,93.1412,VALID,0,VALID,18.1532,VALID,206,VALID,0.568419,
2001-02-02, 00:24:01,VALID,916.234,VALID,0,VALID,93.0891,VALID,0,VALID,18.1382,VALID,210,VALID,0.693359,
2001-02-02, 00:25:01,VALID,916.222,VALID,0,VALID,93.0191,VALID,-0.0169808,VALID,18.0987,VALID,210,VALID,0.832648,
2001-02-02, 00:26:00,VALID,916.214,VALID,0,VALID,93.1895,VALID,-0.0339617,VALID,18.0824,VALID,210,VALID,0.874599,
2001-02-02, 00:27:01,VALID,916.211,VALID,0,VALID,93.112,VALID,-0.0169808,VALID,18.0667,VALID,210,VALID,0.872266,
2001-02-02, 00:28:01,VALID,916.206,VALID,0,VALID,92.9988,VALID,0,VALID,18.0378,VALID,214,VALID,0.924554,
2001-02-02, 00:29:01,VALID,916.198,VALID,0,VALID,92.9708,VALID,0,VALID,18.0245,VALID,211,VALID,1.03526,
2001-02-02, 00:30:01,VALID,916.173,VALID,0,VALID,93.0293,VALID,-0.0339617,VALID,18.0348,VALID,210,VALID,0.902803,
2001-02-02, 00:31:01,VALID,916.166,VALID,0,VALID,93.0726,VALID,-0.0509425,VALID,18.0314,VALID,212,VALID,0.822768,
2001-02-02, 00:32:01,VALID,916.154,VALID,0,VALID,92.728,VALID,-0.0169808,VALID,18.0284,VALID,216,VALID,1.3147,
2001-02-02, 00:33:01,VALID,916.157,VALID,0,VALID,92.6275,VALID,0,VALID,18.0249,VALID,213,VALID,1.06567,
2001-02-02, 00:34:01,VALID,916.168,VALID,0,VALID,92.4584,VALID,-0.0169808,VALID,18.0443,VALID,221,VALID,0.817023,
2001-02-02, 00:35:01,VALID,916.169,VALID,0,VALID,92.508,VALID,-0.0169808,VALID,18.057,VALID,219,VALID,0.843527,
2001-02-02, 00:36:01,VALID,916.149,VALID,0,VALID,92.6364,VALID,0,VALID,18.0604,VALID,214,VALID,0.847756,
2001-02-02, 00:37:01,VALID,916.144,VALID,0,VALID,92.7699,VALID,0,VALID,18.0572,VALID,201,VALID,0.566525,
2001-02-02, 00:38:01,VALID,916.131,VALID,0,VALID,92.878,VALID,0,VALID,18.051,VALID,193,VALID,0.494358,
2001-02-02, 00:39:01,VALID,916.125,VALID,0,VALID,92.6822,VALID,0,VALID,18.0217,VALID,193,VALID,0.484992,
2001-02-02, 00:40:01,VALID,916.118,VALID,0,VALID,92.9416,VALID,-0.0169808,VALID,17.9961,VALID,187,VALID,0.532652,
2001-02-02, 00:41:01,VALID,916.096,VALID,0,VALID,92.5219,VALID,0,VALID,17.967,VALID,167,VALID,0.635547,
2001-02-02, 00:42:01,VALID,916.102,VALID,0,VALID,92.3337,VALID,0,VALID,17.9377,VALID,161,VALID,0.766295,
2001-02-02, 00:43:01,VALID,916.075,VALID,0,VALID,92.5308,VALID,-0.0169808,VALID,17.8798,VALID,162,VALID,0.754645,
2001-02-02, 00:44:01,VALID,916.062,VALID,0,VALID,92.6885,VALID,-0.0169808,VALID,17.8314,VALID,154,VALID,0.849035,
2001-02-02, 00:45:00,VALID,916.067,VALID,0,VALID,92.8615,VALID,0,VALID,17.773,VALID,142,VALID,0.852455,
2001-02-02, 00:46:00,VALID,916.064,VALID,0,VALID,92.9848,VALID,0,VALID,17.7476,VALID,150,VALID,0.632212,
2001-02-02, 00:47:00,VALID,916.069,VALID,0,VALID,93.126,VALID,-0.0169808,VALID,17.7087,VALID,179,VALID,0.652449,
2001-02-02, 00:48:00,VALID,916.057,VALID,0,VALID,93.2468,VALID,0,VALID,17.7119,VALID,203,VALID,0.739926,
2001-02-02, 00:49:00,VALID,916.061,VALID,0,VALID,92.8411,VALID,0,VALID,17.7349,VALID,216,VALID,0.911161,
2001-02-02, 00:50:00,VALID,916.059,VALID,0,VALID,92.4418,VALID,-0.0339617,VALID,17.7732,VALID,222,VALID,1.14103,
2001-02-02, 00:51:00,VALID,916.054,VALID,0,VALID,91.9001,VALID,-0.0679233,VALID,17.8415,VALID,222,VALID,0.962831,
2001-02-02, 00:52:00,VALID,916.06,VALID,0,VALID,91.3775,VALID,-0.0169808,VALID,17.9026,VALID,221,VALID,1.05903,
2001-02-02, 00:53:00,VALID,916.061,VALID,0,VALID,91.066,VALID,-0.0169808,VALID,17.9931,VALID,217,VALID,1.29688,
2001-02-02, 00:54:00,VALID,916.053,VALID,0,VALID,90.9477,VALID,-0.0169808,VALID,18.0616,VALID,203,VALID,0.662059,
2001-02-02, 00:55:00,VALID,916.049,VALID,0,VALID,90.7531,VALID,-0.0169808,VALID,18.0867,VALID,219,VALID,0.498828,
2001-02-02, 00:56:00,VALID,916.04,VALID,0,VALID,90.6514,VALID,-0.0339617,VALID,18.0902,VALID,208,VALID,0.641964,
2001-02-02, 00:57:00,VALID,916.042,VALID,0,VALID,90.4543,VALID,-0.0169808,VALID,18.0833,VALID,184,VALID,0.381334,
2001-02-02, 00:58:00,VALID,916.043,VALID,0,VALID,90.3679,VALID,0,VALID,18.0704,VALID,193,VALID,0.344439,
2001-02-02, 00:59:00,VALID,916.031,VALID,0,VALID,90.3068,VALID,-0.0169808,VALID,18.0383,VALID,183,VALID,0.411384,
2001-02-02, 01:00:00,VALID,916.021,VALID,0,VALID,89.2488,VALID,0.0169808,VALID,18.0346,VALID,191,VALID,0.715946,
2001-02-02, 01:01:00,VALID,916.014,VALID,0,VALID,88.36,VALID,0,VALID,18.1223,VALID,183,VALID,1.09269,
2001-02-02, 01:02:00,VALID,916.009,VALID,0,VALID,87.9327,VALID,0,VALID,18.2355,VALID,199,VALID,0.577714,
2001-02-02, 01:03:00,VALID,916.018,VALID,0,VALID,86.9256,VALID,0,VALID,18.3064,VALID,235,VALID,0.935938,
2001-02-02, 01:04:00,VALID,916.006,VALID,0,VALID,86.8493,VALID,-0.0339617,VALID,18.4159,VALID,218,VALID,0.88101,
2001-02-02, 01:05:00,VALID,916.013,VALID,0,VALID,87.199,VALID,-0.0169808,VALID,18.481,VALID,183,VALID,0.121922,
2001-02-02, 01:06:00,VALID,916.015,VALID,0,VALID,87.0731,VALID,-0.0339617,VALID,18.4415,VALID,193,VALID,0.249783,
2001-02-02, 01:07:00,VALID,916.006,VALID,0,VALID,87.4355,VALID,0,VALID,18.433,VALID,179,VALID,0.119243,
2001-02-02, 01:08:00,VALID,916.018,VALID,0,VALID,87.7458,VALID,-0.0169808,VALID,18.3518,VALID,157,VALID,0.348558,
2001-02-02, 01:09:00,VALID,916.02,VALID,0,VALID,87.9747,VALID,-0.0339617,VALID,18.2974,VALID,158,VALID,0.360742,
2001-02-02, 01:10:00,VALID,916.018,VALID,0,VALID,87.9493,VALID,-0.0509425,VALID,18.2482,VALID,166,VALID,0.344643,
2001-02-02, 01:11:00,VALID,916.01,VALID,0,VALID,88.0968,VALID,-0.0509425,VALID,18.2455,VALID,157,VALID,0.114865,
2001-02-02, 01:12:00,VALID,916.01,VALID,0,VALID,88.0624,VALID,-0.0169808,VALID,18.206,VALID,156,VALID,0,
2001-02-02, 01:13:00,VALID,916.011,VALID,0,VALID,88.4604,VALID,0,VALID,18.1802,VALID,156,VALID,0,
2001-02-02, 01:14:00,VALID,916,VALID,0,VALID,88.4833,VALID,0,VALID,18.1391,VALID,156,VALID,0,
2001-02-02, 01:15:00,VALID,915.988,VALID,0,VALID,88.6169,VALID,0,VALID,18.119,VALID,149,VALID,0,
2001-02-02, 01:16:00,VALID,915.988,VALID,0,VALID,88.9042,VALID,0,VALID,18.0994,VALID,130,VALID,0,
2001-02-02, 01:17:00,VALID,915.98,VALID,0,VALID,89.3493,VALID,0,VALID,18.0353,VALID,125,VALID,0,
2001-02-02, 01:18:00,VALID,915.963,VALID,0,VALID,89.9177,VALID,0,VALID,17.9031,VALID,116,VALID,0.183894,
2001-02-02, 01:19:00,VALID,915.947,VALID,0,VALID,90.5332,VALID,0,VALID,17.7732,VALID,107,VALID,0.232955,
2001-02-02, 01:20:00,VALID,915.943,VALID,0,VALID,90.846,VALID,-0.0509425,VALID,17.6867,VALID,112,VALID,0.410807,
2001-02-02, 01:21:00,VALID,915.924,VALID,0,VALID,91.2961,VALID,-0.0339617,VALID,17.6189,VALID,127,VALID,0.526316,
2001-02-02, 01:22:00,VALID,915.91,VALID,0,VALID,91.7208,VALID,-0.0169808,VALID,17.5313,VALID,123,VALID,0.487179,
2001-02-02, 01:23:00,VALID,915.915,VALID,0,VALID,92.2943,VALID,-0.0169808,VALID,17.4448,VALID,117,VALID,0.5625,
2001-02-02, 01:24:00,VALID,915.888,VALID,0,VALID,92.7216,VALID,-0.0339617,VALID,17.3539,VALID,104,VALID,0.825446,
2001-02-02, 01:25:00,VALID,915.879,VALID,0,VALID,93.0357,VALID,-0.0169808,VALID,17.2962,VALID,102,VALID,0.875633,
2001-02-02, 01:26:00,VALID,915.865,VALID,0,VALID,93.1221,VALID,0,VALID,17.251,VALID,102,VALID,0.787454,
2001-02-02, 01:27:00,VALID,915.844,VALID,0,VALID,93.4642,VALID,-0.0169808,VALID,17.2021,VALID,108,VALID,0.843304,
2001-02-02, 01:28:00,VALID,915.834,VALID,0,VALID,93.5316,VALID,-0.0339617,VALID,17.2123,VALID,112,VALID,0.861178,
2001-02-02, 01:29:00,VALID,915.822,VALID,0,VALID,93.4617,VALID,0,VALID,17.2024,VALID,116,VALID,0.96516,
2001-02-02, 01:30:00,VALID,915.811,VALID,0,VALID,93.6931,VALID,-0.0339617,VALID,17.2093,VALID,115,VALID,0.945518,
2001-02-02, 01:31:00,VALID,915.799,VALID,0,VALID,93.5227,VALID,-0.0169808,VALID,17.2189,VALID,123,VALID,0.975893,
2001-02-02, 01:32:00,VALID,915.79,VALID,0,VALID,93.7605,VALID,-0.0679233,VALID,17.2443,VALID,138,VALID,1.12861,
2001-02-02, 01:33:00,VALID,915.777,VALID,0,VALID,93.4782,VALID,-0.0169808,VALID,17.3186,VALID,140,VALID,1.15791,
2001-02-02, 01:34:00,VALID,915.772,VALID,0,VALID,93.1005,VALID,-0.0509425,VALID,17.3735,VALID,135,VALID,1.34852,
2001-02-02, 01:35:00,VALID,915.746,VALID,0,VALID,92.9874,VALID,-0.0169808,VALID,17.4164,VALID,151,VALID,0.984786,
2001-02-02, 01:36:00,VALID,915.719,VALID,0,VALID,92.8068,VALID,-0.0339617,VALID,17.4579,VALID,166,VALID,1.07011,
2001-02-02, 01:37:00,VALID,915.7,VALID,0,VALID,92.5881,VALID,-0.0169808,VALID,17.4969,VALID,170,VALID,1.25391,
2001-02-02, 01:38:00,VALID,915.703,VALID,0,VALID,92.096,VALID,-0.0509425,VALID,17.5419,VALID,157,VALID,1.65826,
2001-02-02, 01:39:00,VALID,915.696,VALID,0,VALID,91.9396,VALID,-0.0509425,VALID,17.6034,VALID,163,VALID,1.39084,
2001-02-02, 01:40:00,VALID,915.685,VALID,0,VALID,91.7005,VALID,-0.0849042,VALID,17.6452,VALID,158,VALID,1.01608,
2001-02-02, 01:41:00,VALID,915.675,VALID,0,VALID,91.5657,VALID,-0.0509425,VALID,17.6678,VALID,159,VALID,1.17165,
2001-02-02, 01:42:00,VALID,915.654,VALID,0,VALID,91.6344,VALID,0,VALID,17.6704,VALID,172,VALID,1.24038,
2001-02-02, 01:43:00,VALID,915.65,VALID,0,VALID,91.6127,VALID,-0.0169808,VALID,17.6876,VALID,182,VALID,1.33066,
2001-02-02, 01:44:00,VALID,915.638,VALID,0,VALID,91.5619,VALID,-0.0339617,VALID,17.6867,VALID,184,VALID,1.19017,
2001-02-02, 01:45:00,VALID,915.64,VALID,0,VALID,91.361,VALID,-0.0679233,VALID,17.7197,VALID,176,VALID,1.32076,
2001-02-02, 01:46:00,VALID,915.639,VALID,0,VALID,91.2147,VALID,-0.0339617,VALID,17.7554,VALID,171,VALID,1.16927,
2001-02-02, 01:47:00,VALID,915.635,VALID,0,VALID,91.1423,VALID,-0.0169808,VALID,17.755,VALID,172,VALID,1.20668,
2001-02-02, 01:48:00,VALID,915.614,VALID,0,VALID,91.0532,VALID,0,VALID,17.7582,VALID,178,VALID,1.22526,
2001-02-02, 01:49:00,VALID,915.607,VALID,0,VALID,90.8485,VALID,-0.0169808,VALID,17.7806,VALID,179,VALID,1.33573,
2001-02-02, 01:50:00,VALID,915.585,VALID,0,VALID,90.5726,VALID,-0.0339617,VALID,17.8456,VALID,189,VALID,1.15565,
2001-02-02, 01:51:00,VALID,915.578,VALID,0,VALID,90.6069,VALID,-0.0169808,VALID,17.8842,VALID,201,VALID,1.01172,
2001-02-02, 01:52:00,VALID,915.548,VALID,0,VALID,90.7913,VALID,0,VALID,17.8766,VALID,202,VALID,1.24308,
2001-02-02, 01:53:00,VALID,915.545,VALID,0,VALID,91.0647,VALID,0.0169808,VALID,17.8538,VALID,199,VALID,1.26436,
2001-02-02, 01:54:00,VALID,915.56,VALID,0,VALID,91.3076,VALID,0.0169808,VALID,17.8279,VALID,205,VALID,0.813189,
2001-02-02, 01:55:00,VALID,915.549,VALID,0,VALID,91.4335,VALID,0.0169808,VALID,17.7954,VALID,205,VALID,0.804241,
2001-02-02, 01:56:00,VALID,915.542,VALID,0,VALID,91.5021,VALID,0.0169808,VALID,17.7763,VALID,207,VALID,0.923277,
2001-02-02, 01:57:00,VALID,915.538,VALID,0,VALID,91.5225,VALID,0,VALID,17.7668,VALID,212,VALID,1.11993,
2001-02-02, 01:58:00,VALID,915.535,VALID,0,VALID,91.7221,VALID,0,VALID,17.7666,VALID,223,VALID,1.09519,
2001-02-02, 01:59:00,VALID,915.512,VALID,0,VALID,91.6356,VALID,0.0169808,VALID,17.7698,VALID,209,VALID,1.08415,
2001-02-02, 02:00:00,VALID,915.515,VALID,0,VALID,91.3902,VALID,0,VALID,17.7767,VALID,212,VALID,1.07752,
2001-02-02, 02:01:00,VALID,915.51,VALID,0,VALID,91.1486,VALID,0,VALID,17.7797,VALID,209,VALID,0.912169,
2001-02-02, 02:02:00,VALID,915.494,VALID,0,VALID,90.9706,VALID,0.0169808,VALID,17.7922,VALID,206,VALID,0.8648,
2001-02-02, 02:03:00,VALID,915.478,VALID,0,VALID,90.406,VALID,0,VALID,17.8284,VALID,206,VALID,1.21258,
2001-02-02, 02:04:00,VALID,915.463,VALID,0,VALID,90.2483,VALID,0,VALID,17.8565,VALID,202,VALID,0.976162,
2001-02-02, 02:05:00,VALID,915.449,VALID,0,VALID,90.1123,VALID,0.0169808,VALID,17.9026,VALID,203,VALID,1.06602,
2001-02-02, 02:06:00,VALID,915.424,VALID,0,VALID,89.9495,VALID,0.0169808,VALID,17.9345,VALID,195,VALID,1.19107,
2001-02-02, 02:07:00,VALID,915.424,VALID,0,VALID,89.8185,VALID,0.0339617,VALID,17.9772,VALID,197,VALID,1.25781,
2001-02-02, 02:08:00,VALID,915.404,VALID,0,VALID,89.5947,VALID,0,VALID,17.9963,VALID,193,VALID,1.11558,
2001-02-02, 02:09:00,VALID,915.395,VALID,0,VALID,89.5693,VALID,0.0169808,VALID,18.0185,VALID,202,VALID,0.921205,
2001-02-02, 02:10:00,VALID,915.374,VALID,0,VALID,89.554,VALID,0,VALID,18.0284,VALID,205,VALID,0.748397,
2001-02-02, 02:11:00,VALID,915.355,VALID,0,VALID,89.5133,VALID,0.0169808,VALID,18.0155,VALID,206,VALID,0.939823,
2001-02-02, 02:12:00,VALID,915.356,VALID,0,VALID,89.4917,VALID,0.0169808,VALID,18.0182,VALID,199,VALID,0.850123,
2001-02-02, 02:13:00,VALID,915.357,VALID,0,VALID,89.6176,VALID,0.0169808,VALID,18.0247,VALID,201,VALID,0.772545,
2001-02-02, 02:14:00,VALID,915.352,VALID,0,VALID,89.8643,VALID,0.0169808,VALID,18.0025,VALID,202,VALID,0.74379,
2001-02-02, 02:15:00,VALID,915.34,VALID,0,VALID,90.055,VALID,0.0169808,VALID,17.9631,VALID,198,VALID,1.0045,
2001-02-02, 02:16:00,VALID,915.344,VALID,0,VALID,90.1123,VALID,0.0339617,VALID,17.9603,VALID,206,VALID,1.02452,
2001-02-02, 02:17:00,VALID,915.348,VALID,0,VALID,90.1084,VALID,0.0169808,VALID,17.9539,VALID,204,VALID,1.32998,
2001-02-02, 02:18:00,VALID,915.333,VALID,0,VALID,90.008,VALID,0.0169808,VALID,17.976,VALID,202,VALID,1.03486,
2001-02-02, 02:19:00,VALID,915.347,VALID,0,VALID,89.8999,VALID,0.0509425,VALID,17.9991,VALID,215,VALID,1.24473,
2001-02-02, 02:20:00,VALID,915.335,VALID,0,VALID,89.6812,VALID,0.0339617,VALID,18.0438,VALID,223,VALID,1.15179,
2001-02-02, 02:21:00,VALID,915.33,VALID,0,VALID,89.4701,VALID,0.0169808,VALID,18.1024,VALID,217,VALID,1.29497,
2001-02-02, 02:22:00,VALID,915.309,VALID,0,VALID,89.4141,VALID,-0.0509425,VALID,18.113,VALID,215,VALID,1.13074,
2001-02-02, 02:23:00,VALID,915.299,VALID,0,VALID,89.6914,VALID,-0.0679233,VALID,18.1003,VALID,214,VALID,0.878571,
2001-02-02, 02:24:00,VALID,915.296,VALID,0,VALID,89.9737,VALID,-0.0849042,VALID,18.0747,VALID,230,VALID,0.769231,
2001-02-02, 02:25:00,VALID,915.3,VALID,0,VALID,90.4861,VALID,-0.101885,VALID,18.0457,VALID,229,VALID,0.745144,
2001-02-02, 02:26:00,VALID,915.307,VALID,0,VALID,90.9986,VALID,-0.0679233,VALID,18.0032,VALID,214,VALID,0.631168,
2001-02-02, 02:27:00,VALID,915.315,VALID,0,VALID,91.3355,VALID,-0.0849042,VALID,17.9485,VALID,215,VALID,0.54375,
2001-02-02, 02:28:00,VALID,915.317,VALID,0,VALID,91.3622,VALID,-0.101885,VALID,17.9003,VALID,226,VALID,0.63121,
2001-02-02, 02:29:00,VALID,915.323,VALID,0,VALID,91.4309,VALID,-0.101885,VALID,17.8936,VALID,222,VALID,0.918087,
2001-02-02, 02:30:00,VALID,915.313,VALID,0,VALID,91.5339,VALID,-0.101885,VALID,17.907,VALID,223,VALID,1.11523,
2001-02-02, 02:31:00,VALID,915.313,VALID,0,VALID,91.5479,VALID,-0.0849042,VALID,17.9199,VALID,224,VALID,1.04667,
2001-02-02, 02:32:00,VALID,915.312,VALID,0,VALID,91.3699,VALID,-0.101885,VALID,17.9292,VALID,219,VALID,1.26302,
2001-02-02, 02:33:00,VALID,915.313,VALID,0,VALID,91.0723,VALID,-0.101885,VALID,17.9778,VALID,221,VALID,0.971484,
2001-02-02, 02:34:00,VALID,915.322,VALID,0,VALID,90.776,VALID,-0.0679233,VALID,18.0196,VALID,214,VALID,0.83125,
2001-02-02, 02:35:00,VALID,915.32,VALID,0,VALID,90.6412,VALID,-0.0679233,VALID,18.0452,VALID,207,VALID,0.668285,
2001-02-02, 02:36:00,VALID,915.312,VALID,0,VALID,90.6323,VALID,-0.0679233,VALID,18.0586,VALID,207,VALID,0.599035,
2001-02-02, 02:37:00,VALID,915.321,VALID,0,VALID,90.79,VALID,-0.0169808,VALID,18.051,VALID,211,VALID,0.587723,
2001-02-02, 02:38:00,VALID,915.316,VALID,0,VALID,91.0723,VALID,0.0169808,VALID,18.0247,VALID,212,VALID,1.01142,
2001-02-02, 02:39:00,VALID,915.313,VALID,0,VALID,90.9808,VALID,0,VALID,18.0406,VALID,219,VALID,1.2916,
2001-02-02, 02:40:00,VALID,915.317,VALID,0,VALID,90.7468,VALID,0.0169808,VALID,18.0992,VALID,224,VALID,0.932566,
2001-02-02, 02:41:00,VALID,915.31,VALID,0,VALID,90.6807,VALID,0.0509425,VALID,18.1087,VALID,224,VALID,1.12522,
2001-02-02, 02:42:00,VALID,915.316,VALID,0,VALID,90.7239,VALID,0.0339617,VALID,18.1218,VALID,228,VALID,0.965345,
2001-02-02, 02:43:00,VALID,915.324,VALID,0,VALID,90.8574,VALID,0.0339617,VALID,18.099,VALID,222,VALID,1.00331,
2001-02-02, 02:44:00,VALID,915.32,VALID,0,VALID,91.0774,VALID,0.0169808,VALID,18.0764,VALID,221,VALID,0.959635,
2001-02-02, 02:45:00,VALID,915.315,VALID,0,VALID,91.2987,VALID,0,VALID,18.0475,VALID,225,VALID,0.803865,
2001-02-02, 02:46:00,VALID,915.304,VALID,0,VALID,91.5517,VALID,0.0679233,VALID,18.0014,VALID,220,VALID,0.872396,
2001-02-02, 02:47:00,VALID,915.29,VALID,0,VALID,91.8111,VALID,0,VALID,17.9696,VALID,222,VALID,0.745117,
2001-02-02, 02:48:00,VALID,915.261,VALID,0,VALID,92.0044,VALID,0.0679233,VALID,17.9274,VALID,222,VALID,0.827232,
2001-02-02, 02:49:00,VALID,915.235,VALID,0,VALID,92.2447,VALID,0.0339617,VALID,17.9121,VALID,224,VALID,0.929054,
2001-02-02, 02:50:00,VALID,915.211,VALID,0,VALID,92.3859,VALID,0,VALID,17.863,VALID,223,VALID,0.754825,
2001-02-02, 02:51:00,VALID,915.186,VALID,0,VALID,92.5652,VALID,0.0169808,VALID,17.8339,VALID,210,VALID,0.700446,
2001-02-02, 02:52:00,VALID,915.175,VALID,0,VALID,92.7928,VALID,0.0169808,VALID,17.7956,VALID,208,VALID,0.659054,
2001-02-02, 02:53:00,VALID,915.152,VALID,0,VALID,93.0509,VALID,0.0169808,VALID,17.7636,VALID,203,VALID,0.684696,
2001-02-02, 02:54:00,VALID,915.141,VALID,0,VALID,93.2251,VALID,0.0169808,VALID,17.7336,VALID,204,VALID,0.57977,
2001-02-02, 02:55:00,VALID,915.144,VALID,0,VALID,93.2073,VALID,0.0169808,VALID,17.7078,VALID,206,VALID,0.397545,
2001-02-02, 02:56:00,VALID,915.134,VALID,0,VALID,93.3167,VALID,0.0169808,VALID,17.6891,VALID,206,VALID,0.314103,
2001-02-02, 02:57:00,VALID,915.135,VALID,0,VALID,93.524,VALID,0,VALID,17.663,VALID,206,VALID,0.376184,
2001-02-02, 02:58:00,VALID,915.137,VALID,0,VALID,93.6664,VALID,0,VALID,17.6406,VALID,208,VALID,0.321615,
2001-02-02, 02:59:00,VALID,915.13,VALID,0,VALID,93.7923,VALID,0,VALID,17.6116,VALID,209,VALID,0.467722,
2001-02-02, 03:00:00,VALID,915.123,VALID,0,VALID,93.9258,VALID,-0.0169808,VALID,17.612,VALID,209,VALID,0.509615,
2001-02-02, 03:01:00,VALID,915.115,VALID,0,VALID,94.025,VALID,0,VALID,17.592,VALID,209,VALID,0.37207,
2001-02-02, 03:02:00,VALID,915.107,VALID,0,VALID,93.8355,VALID,0,VALID,17.5726,VALID,209,VALID,0.323438,
2001-02-02, 03:03:00,VALID,915.106,VALID,0,VALID,93.9512,VALID,0,VALID,17.5569,VALID,210,VALID,0.436233,
2001-02-02, 03:04:00,VALID,915.094,VALID,0,VALID,94.0949,VALID,0,VALID,17.5214,VALID,217,VALID,0.576976,
2001-02-02, 03:05:00,VALID,915.087,VALID,0,VALID,94.5133,VALID,0,VALID,17.5022,VALID,213,VALID,0.879464,
2001-02-02, 03:06:00,VALID,915.083,VALID,0,VALID,94.7218,VALID,0,VALID,17.4951,VALID,212,VALID,0.942508,
2001-02-02, 03:07:00,VALID,915.08,VALID,0,VALID,94.6811,VALID,0,VALID,17.5052,VALID,206,VALID,0.709671,
2001-02-02, 03:08:00,VALID,915.082,VALID,0,VALID,94.6315,VALID,0,VALID,17.5052,VALID,197,VALID,0.628495,
2001-02-02, 03:09:00,VALID,915.089,VALID,0,VALID,94.8007,VALID,-0.0169808,VALID,17.5054,VALID,199,VALID,0.720312,
2001-02-02, 03:10:00,VALID,915.079,VALID,0,VALID,94.7841,VALID,0,VALID,17.4928,VALID,202,VALID,0.582933,
2001-02-02, 03:11:00,VALID,915.082,VALID,0,VALID,94.8553,VALID,0,VALID,17.4828,VALID,212,VALID,0.612453,
2001-02-02, 03:12:00,VALID,915.089,VALID,0,VALID,94.9533,VALID,-0.0169808,VALID,17.4473,VALID,207,VALID,0.759115,
2001-02-02, 03:13:00,VALID,915.068,VALID,0,VALID,95.116,VALID,0,VALID,17.4282,VALID,206,VALID,0.84889,
2001-02-02, 03:14:00,VALID,915.085,VALID,0,VALID,95.1542,VALID,-0.0339617,VALID,17.4021,VALID,206,VALID,0.617188,
2001-02-02, 03:15:00,VALID,915.087,VALID,0,VALID,95.3856,VALID,0.0169808,VALID,17.3696,VALID,202,VALID,0.724609,
2001-02-02, 03:16:00,VALID,915.076,VALID,0,VALID,95.7238,VALID,0,VALID,17.347,VALID,204,VALID,0.705357,
2001-02-02, 03:17:00,VALID,915.065,VALID,0,VALID,95.8714,VALID,-0.0509425,VALID,17.3315,VALID,205,VALID,0.597973,
2001-02-02, 03:18:00,VALID,915.061,VALID,0,VALID,95.8866,VALID,-0.0169808,VALID,17.3218,VALID,201,VALID,0.39545,
2001-02-02, 03:19:00,VALID,915.061,VALID,0,VALID,95.94,VALID,-0.0169808,VALID,17.2997,VALID,197,VALID,0.444196,
2001-02-02, 03:20:00,VALID,915.038,VALID,0,VALID,95.6806,VALID,-0.0509425,VALID,17.2575,VALID,189,VALID,0.544671,
2001-02-02, 03:21:00,VALID,915.034,VALID,0,VALID,95.9502,VALID,-0.0169808,VALID,17.2086,VALID,175,VALID,0.65435,
2001-02-02, 03:22:00,VALID,915.017,VALID,0,VALID,96.1295,VALID,-0.0169808,VALID,17.1574,VALID,175,VALID,0.695313,
2001-02-02, 03:23:00,VALID,915.002,VALID,0,VALID,96.2414,VALID,0,VALID,17.1188,VALID,174,VALID,0.665625,
2001-02-02, 03:24:00,VALID,915.002,VALID,0,VALID,96.5326,VALID,-0.0169808,VALID,17.0861,VALID,183,VALID,0.654647,
2001-02-02, 03:25:00,VALID,915.007,VALID,0,VALID,96.2261,VALID,-0.0339617,VALID,17.0607,VALID,180,VALID,0.598011,
2001-02-02, 03:26:00,VALID,915.01,VALID,0,VALID,96.1536,VALID,-0.0169808,VALID,17.0091,VALID,160,VALID,0.778863,
2001-02-02, 03:27:00,VALID,915,VALID,0,VALID,96.1702,VALID,-0.0509425,VALID,16.9695,VALID,159,VALID,0.83162,
2001-02-02, 03:28:00,VALID,915.004,VALID,0,VALID,96.6903,VALID,-0.0169808,VALID,16.9568,VALID,175,VALID,0.944511,
2001-02-02, 03:29:00,VALID,914.993,VALID,0,VALID,96.8708,VALID,-0.0169808,VALID,16.9791,VALID,172,VALID,0.859766,
2001-02-02, 03:30:00,VALID,914.998,VALID,0,VALID,96.7704,VALID,-0.0169808,VALID,17.005,VALID,166,VALID,0.790179,
2001-02-02, 03:31:00,VALID,914.991,VALID,0,VALID,96.5669,VALID,-0.0169808,VALID,17.0119,VALID,149,VALID,0.866343,
2001-02-02, 03:32:00,VALID,914.979,VALID,0,VALID,96.6674,VALID,0,VALID,17.0121,VALID,169,VALID,0.684513,
2001-02-02, 03:33:00,VALID,914.993,VALID,0,VALID,96.7564,VALID,0,VALID,17.0088,VALID,172,VALID,0.599777,
2001-02-02, 03:34:00,VALID,914.998,VALID,0,VALID,96.8734,VALID,0,VALID,17.0147,VALID,186,VALID,0.502204,